Regional Weather Roundup
Issued by NWS Kansas City/Pleasant Hill, MO

Home | Current Version | Previous Version | Graphics & Text | Print | Product List | Glossary Off
Versions: 1 2 3 4 5 6 7 8 9 10 11 12 13 14 15 16 17 18 19 20 21 22 23 24 25 26 27 28 29 30 31 32 33 34 35 36 37 38 39 40 41 42 43 44 45 46 47 48 49 50

545
ASUS43 KEAX 280610
RWREAX

WEATHER ROUNDUP FOR EASTERN KANSAS AND NORTHWEST MISSOURI
NATIONAL WEATHER SERVICE KANSAS CITY/PLEASANT HILL MO
100 AM CDT FRI APR 28 2017

KSZ040-057-103>105-MOZ028-029-037-043-280700-
...KANSAS CITY METROPOLITAN AREA...

CITY           SKY/WX    TMP DP  RH WIND       PRES   REMARKS
K.C. INTL      LGT RAIN  51  47  86 NE8       29.76S
6HR MIN TEMP:  50; 6HR MAX TEMP:  56; 6HR PCP:  0.03;

K.C. DOWNTOWN  CLOUDY    53  47  79 NE8       29.76R
6HR MIN TEMP:  53; 6HR MAX TEMP:  60; 6HR PCP: TRACE;

LEES SUMMIT    CLOUDY    52  48  86 NE8       29.76S
6HR MIN TEMP:  52; 6HR MAX TEMP:  59; 6HR PCP:  0.04;

OLATHE - IXD   LGT RAIN  51  48  89 NE8       29.75S
6HR MIN TEMP:  51; 6HR MAX TEMP:  59; 6HR PCP:  0.08;

OLATHE - OJC   LGT RAIN  50  49  96 NE7       29.75S
6HR MIN TEMP:  50; 6HR MAX TEMP:  58; 6HR PCP:  0.06;

LAWRENCE       LGT RAIN  51  48  89 E9        29.75R

$$

MOZ001>008-011>017-020>025-030>033-038>040-044>046-053-054-280700-
...NORTHERN AND CENTRAL MISSOURI...

CITY           SKY/WX    TMP DP  RH WIND       PRES   REMARKS
ST. JOSEPH     CLOUDY    51  49  92 NE6       29.78R
6HR MIN TEMP:  50; 6HR MAX TEMP:  61; 6HR PCP:  0.08;

WHITEMAN AFB   CLOUDY    52  52 100 SE6       29.77F
6HR MIN TEMP:  51; 6HR MAX TEMP:  58; 6HR PCP: TRACE;

CLINTON        CLOUDY    54  46  76 E6        29.78S
SEDALIA        CLOUDY    54  48  80 E8        29.80S
6HR MIN TEMP:  53; 6HR MAX TEMP:  60; 6HR PCP: TRACE;

WARSAW         NOT AVBL
CHILLICOTHE      N/A     50  49  96 CALM      29.81R
6HR MIN TEMP:  50; 6HR MAX TEMP:  62; 6HR PCP:  0.03;

KIRKSVILLE     CLOUDY    49  47  93 CALM      29.82R
6HR MIN TEMP:  48; 6HR MAX TEMP:  57;


$$

MOZ041-047>049-056>058-063>065-088>090-097-280700-
...EASTERN AND SOUTHERN MISSOURI...

CITY           SKY/WX    TMP DP  RH WIND       PRES   REMARKS
ST. LOUIS INTL CLOUDY    57  49  74 SE6       29.85R
6HR MIN TEMP:  55; 6HR MAX TEMP:  62;

SPIRIT OF STL  CLOUDY    53  51  93 CALM      29.84R
COLUMBIA       MOCLDY    53  46  77 E5        29.81R
JEFFERSON CITY CLOUDY    56  46  69 SE3       29.81R
ROLLA          CLOUDY    52  47  83 SE5       29.80F
OSAGE BEACH    MOCLDY    54  47  77 E5        29.80S
SPRINGFIELD    LGT RAIN  56  50  80 S13G22    29.77S
BRANSON        CLOUDY    55  48  76 CALM      29.81R
JOPLIN         CLOUDY    57  51  80 SE15G23   29.68F
WEST PLAINS    CLOUDY    56  51  84 VRB3      29.83R

$$

IAZ060-094-KSZ022-034>040-054-083-096-NEZ052-066-093-280700-
...KANSAS...SOUTHEAST NEBRASKA AND IOWA...

CITY           SKY/WX    TMP DP  RH WIND       PRES   REMARKS
TOPEKA         CLOUDY    52  48  86 E8        29.74R
6HR MIN TEMP:  52; 6HR MAX TEMP:  58; 6HR PCP:  0.01;

MANHATTAN      LGT RAIN  50  47  89 NE10      29.72R
EMPORIA        LGT RAIN  50  49  96 E12       29.68F
CHANUTE        CLOUDY    55  46  71 E10       29.66F
WICHITA        LGT RAIN  55  46  71 E12       29.62R
OMAHA          CLOUDY    48  35  60 VRB3      29.79R
LINCOLN        CLOUDY    50  43  77 NE3       29.77S
FALLS CITY     CLOUDY    49  47  93 SE5       29.77R
LAMONI         CLOUDY    49  39  68 NE12      29.79R
DES MOINES     CLOUDY    43  31  62 NE9       29.85R

$$





USA.gov is the U.S. government's official web portal to all federal, state and local government web resources and services.